H1 CPF 2 NER 2024 12 14 9 349 01 glonass139 H2 1808601 9139 43687 2024 12 14 0 0 0 2024 12 17 23 45 0 900 1 1 0 0 0 1 H9 10 0 60658 0.00000 0 17697319.599 -16756622.704 -7507890.363 10 0 60658 900.00000 0 16947625.839 -15929622.821 -10455025.628 10 0 60658 1800.00000 0 16072510.825 -14754248.429 -13198881.399 10 0 60658 2700.00000 0 15130672.367 -13235672.576 -15686088.001 10 0 60658 3600.00000 0 14180302.704 -11391966.842 -17868265.068 10 0 60658 4500.00000 0 13276542.242 -9253592.093 -19702966.230 10 0 60658 5400.00000 0 12469080.059 -6862375.450 -21154507.319 10 0 60658 6300.00000 0 11800002.660 -4270015.222 -22194661.928 10 0 60658 7200.00000 0 11301981.892 -1536175.475 -22803210.838 10 0 60658 8100.00000 0 10996878.400 1273751.028 -22968334.858 10 0 60658 9000.00000 0 10894819.336 4091118.899 -22686843.602 10 0 60658 9900.00000 0 10993788.983 6846642.662 -21964235.992 10 0 60658 10800.00000 0 11279749.239 9473037.543 -20814591.439 10 0 60658 11700.00000 0 11727284.560 11907579.212 -19260293.894 10 0 60658 12600.00000 0 12300743.834 14094476.445 -17331594.165 10 0 60658 13500.00000 0 12955830.684 15986958.608 -15066018.982 10 0 60658 14400.00000 0 13641574.728 17548991.689 -12507638.279 10 0 60658 15300.00000 0 14302600.241 18756552.161 -9706205.011 10 0 60658 16200.00000 0 14881595.979 19598406.513 -6716184.357 10 0 60658 17100.00000 0 15321881.485 20076365.005 -3595691.410 10 0 60658 18000.00000 0 15569960.973 20205000.345 -405358.393 10 0 60658 18900.00000 0 15577956.520 20010844.453 2792846.180 10 0 60658 19800.00000 0 15305817.388 19531098.472 5936823.021 10 0 60658 20700.00000 0 14723211.831 18811911.541 8965548.422 10 0 60658 21600.00000 0 13811021.252 17906301.893 11820257.748 10 0 60658 22500.00000 0 12562373.395 16871808.625 14445583.044 10 0 60658 23400.00000 0 10983170.687 15767973.573 16790622.765 10 0 60658 24300.00000 0 9092091.094 14653759.436 18809923.262 10 0 60658 25200.00000 0 6920060.788 13585012.636 20464353.614 10 0 60658 26100.00000 0 4509219.944 12612077.169 21721857.540 10 0 60658 27000.00000 0 1911423.890 11777659.021 22558068.673 10 0 60658 27900.00000 0 -813659.105 11115030.075 22956778.061 10 0 60658 28800.00000 0 -3600775.502 10646646.103 22910245.482 10 0 60658 29700.00000 0 -6381548.441 10383236.148 22419348.994 10 0 60658 30600.00000 0 -9087073.210 10323400.989 21493569.954 10 0 60658 31500.00000 0 -11650539.829 10453737.292 20150813.632 10 0 60658 32400.00000 0 -14009775.182 10749482.209 18417068.437 10 0 60658 33300.00000 0 -16109600.197 11175651.566 16325909.591 10 0 60658 34200.00000 0 -17903904.921 11688624.153 13917856.045 10 0 60658 35100.00000 0 -19357355.744 12238105.869 11239592.156 10 0 60658 36000.00000 0 -20446664.007 12769391.354 8343068.327 10 0 60658 36900.00000 0 -21161363.238 13225827.982 5284497.421 10 0 60658 37800.00000 0 -21504062.627 13551378.171 2123265.939 10 0 60658 38700.00000 0 -21490166.211 13693171.528 -1079219.055 10 0 60658 39600.00000 0 -21147069.687 13603938.323 -4260724.702 10 0 60658 40500.00000 0 -20512868.782 13244220.568 -7359405.224 10 0 60658 41400.00000 0 -19634633.892 12584266.094 -10315008.791 10 0 60658 42300.00000 0 -18566324.005 11605524.292 -13070054.187 10 0 60658 43200.00000 0 -17366428.357 10301678.970 -15570953.793 10 0 60658 44100.00000 0 -16095435.658 8679173.285 -17769060.459 10 0 60658 45000.00000 0 -14813238.063 6757203.252 -19621617.458 10 0 60658 45900.00000 0 -13576579.629 4567178.695 -21092592.804 10 0 60658 46800.00000 0 -12436656.938 2151673.004 -22153381.654 10 0 60658 47700.00000 0 -11436973.001 -437095.441 -22783363.167 10 0 60658 48600.00000 0 -10611534.623 -3139187.666 -22970301.185 10 0 60658 49500.00000 0 -9983468.753 -5889194.872 -22710581.144 10 0 60658 50400.00000 0 -9564115.636 -8618722.382 -22009278.817 10 0 60658 51300.00000 0 -9352636.280 -11259003.939 -20880059.702 10 0 60658 52200.00000 0 -9336150.158 -13743538.014 -19344911.089 10 0 60658 53100.00000 0 -9490396.611 -16010636.820 -17433712.062 10 0 60658 54000.00000 0 -9780891.375 -18005782.370 -15183649.772 10 0 60658 54900.00000 0 -10164528.735 -19683691.911 -12638493.311 10 0 60658 55800.00000 0 -10591561.013 -21010007.189 -9847739.382 10 0 60658 56700.00000 0 -11007871.084 -21962537.713 -6865646.479 10 0 60658 57600.00000 0 -11357441.284 -22532006.950 -3750176.601 10 0 60658 58500.00000 0 -11584913.710 -22722271.196 -561865.412 10 0 60658 59400.00000 0 -11638133.100 -22550003.104 2637356.756 10 0 60658 60300.00000 0 -11470564.276 -22043854.343 5785369.734 10 0 60658 61200.00000 0 -11043481.542 -21243133.744 8821070.357 10 0 60658 62100.00000 0 -10327837.144 -20196057.557 11685557.579 10 0 60658 63000.00000 0 -9305729.594 -18957646.257 14323272.812 10 0 60658 63900.00000 0 -7971409.547 -17587356.933 16683073.416 10 0 60658 64800.00000 0 -6331780.474 -16146551.008 18719218.927 10 0 60658 65700.00000 0 -4406372.451 -14695903.618 20392251.475 10 0 60658 66600.00000 0 -2226789.417 -13292862.974 21669754.041 10 0 60658 67500.00000 0 164347.979 -11989265.608 22526972.696 10 0 60658 68400.00000 0 2714920.960 -10829206.592 22947291.556 10 0 60658 69300.00000 0 5365230.702 -9847252.989 22922551.913 10 0 60658 70200.00000 0 8050237.511 -9067074.411 22453209.785 10 0 60658 71100.00000 0 10702029.534 -8500547.163 21548329.025 10 0 60658 72000.00000 0 13252419.856 -8147368.852 20225409.927 10 0 60658 72900.00000 0 15635565.410 -7995199.127 18510056.213 10 0 60658 73800.00000 0 17790500.005 -8020320.448 16435486.126 10 0 60658 74700.00000 0 19663476.972 -8188791.072 14041896.256 10 0 60658 75600.00000 0 21210024.494 -8458041.862 11375689.483 10 0 60658 76500.00000 0 22396628.268 -8778849.828 8488581.168 10 0 60658 77400.00000 0 23201971.335 -9097605.263 5436600.216 10 0 60658 78300.00000 0 23617679.181 -9358776.695 2279003.967 10 0 60658 79200.00000 0 23648538.785 -9507469.275 -922872.227 10 0 60658 80100.00000 0 23312182.275 -9491967.844 -4106808.240 10 0 60658 81000.00000 0 22638248.436 -9266156.363 -7210911.688 10 0 60658 81900.00000 0 21667057.362 -8791710.307 -10174825.613 10 0 60658 82800.00000 0 20447854.149 -8039968.086 -12940907.191 10 0 60658 83700.00000 0 19036695.849 -6993401.037 -15455353.875 10 0 60658 84600.00000 0 17494070.927 -5646618.468 -17669254.520 10 0 60658 85500.00000 0 15882351.758 -4006863.901 -19539544.576 10 0 60659 0.00000 0 14263187.779 -2093980.393 -21029846.391 10 0 60659 900.00000 0 12694948.205 60156.113 -22111178.932 10 0 60659 1800.00000 0 11230323.985 2412710.212 -22762521.238 10 0 60659 2700.00000 0 9914186.665 4911426.878 -22971221.508 10 0 60659 3600.00000 0 8781795.865 7496571.802 -22733241.956 10 0 60659 4500.00000 0 7857429.201 10103193.016 -22053235.789 10 0 60659 5400.00000 0 7153491.580 12663609.970 -20944454.778 10 0 60659 6300.00000 0 6670140.388 15110026.887 -19428489.341 10 0 60659 7200.00000 0 6395441.368 17377161.875 -17534846.216 10 0 60659 8100.00000 0 6306047.562 19404782.582 -15300371.936 10 0 60659 9000.00000 0 6368371.681 21140043.055 -12768533.289 10 0 60659 9900.00000 0 6540201.438 22539524.567 -9988568.838 10 0 60659 10800.00000 0 6772688.668 23570895.693 -7014528.108 10 0 60659 11700.00000 0 7012627.288 24214122.744 -3904217.333 10 0 60659 12600.00000 0 7204922.966 24462180.608 -718072.650 10 0 60659 13500.00000 0 7295149.278 24321235.032 2482016.992 10 0 60659 14400.00000 0 7232081.612 23810289.666 5633913.880 10 0 60659 15300.00000 0 6970101.074 22960313.630 8676438.753 10 0 60659 16200.00000 0 6471366.357 21812887.187 11550557.457 10 0 60659 17100.00000 0 5707661.400 20418423.200 14200523.931 10 0 60659 18000.00000 0 4661840.532 18834039.628 16574957.412 10 0 60659 18900.00000 0 3328809.793 17121172.679 18627833.344 10 0 60659 19800.00000 0 1716002.588 15343030.688 20319369.358 10 0 60659 20700.00000 0 -156670.922 13561995.097 21616789.832 10 0 60659 21600.00000 0 -2257399.513 11837076.720 22494955.057 10 0 60659 22500.00000 0 -4543548.660 10221532.804 22936843.609 10 0 60659 23400.00000 0 -6963196.689 8760743.512 22933879.228 10 0 60659 24300.00000 0 -9457066.690 7490435.442 22486096.355 10 0 60659 25200.00000 0 -11960775.279 6435325.333 21602141.257 10 0 60659 26100.00000 0 -14407306.115 5608239.702 20299108.624 10 0 60659 27000.00000 0 -16729606.648 5009746.410 18602216.316 10 0 60659 27900.00000 0 -18863201.295 4628312.981 16544323.902 10 0 60659 28800.00000 0 -20748713.120 4440984.636 14165303.446 10 0 60659 29700.00000 0 -22334189.604 4414553.307 11511273.827 10 0 60659 30600.00000 0 -23577135.802 4507168.323 8633712.549 10 0 60659 31500.00000 0 -24446169.958 4670320.812 5588461.583 10 0 60659 32400.00000 0 -24922232.149 4851117.911 2434646.055 10 0 60659 33300.00000 0 -24999295.001 4994750.425 -766473.458 10 0 60659 34200.00000 0 -24684546.263 5047049.090 -3952692.575 10 0 60659 35100.00000 0 -23998035.229 4957020.607 -7062075.236 10 0 60659 36000.00000 0 -22971797.587 4679255.152 -10034162.197 10 0 60659 36900.00000 0 -21648495.351 4176102.415 -12811151.722 10 0 60659 37800.00000 0 -20079629.065 3419522.834 -15339028.851 10 0 60659 38700.00000 0 -18323397.545 2392534.433 -17568620.729 10 0 60659 39600.00000 0 -16442295.296 1090192.780 -19456556.966 10 0 60659 40500.00000 0 -14500548.705 -479938.648 -20966116.084 10 0 60659 41400.00000 0 -12561498.738 -2297848.886 -22067941.521 10 0 60659 42300.00000 0 -10685039.949 -4331669.414 -22740613.266 10 0 60659 43200.00000 0 -8925222.972 -6538770.053 -22971064.199 10 0 60659 44100.00000 0 -7328120.597 -8867315.988 -22754833.230 10 0 60659 45000.00000 0 -5930046.246 -11258221.681 -22096150.526 10 0 60659 45900.00000 0 -4756198.687 -13647420.769 -21007853.318 10 0 60659 46800.00000 0 -3819788.815 -15968357.763 -19511134.038 10 0 60659 47700.00000 0 -3121683.983 -18154597.972 -17635125.717 10 0 60659 48600.00000 0 -2650583.570 -20142447.022 -15416332.698 10 0 60659 49500.00000 0 -2383717.096 -21873470.851 -12897917.748 10 0 60659 50400.00000 0 -2288034.169 -23296811.086 -10128859.466 10 0 60659 51300.00000 0 -2321834.817 -24371199.235 -7162996.504 10 0 60659 52200.00000 0 -2436770.200 -25066585.698 -4057977.396 10 0 60659 53100.00000 0 -2580128.055 -25365315.768 -874136.770 10 0 60659 54000.00000 0 -2697305.284 -25262803.844 2326679.823 10 0 60659 54900.00000 0 -2734362.258 -24767678.211 5482319.194 10 0 60659 55800.00000 0 -2640550.123 -23901391.023 8531528.119 10 0 60659 56700.00000 0 -2370703.660 -22697310.565 11415141.529 10 0 60659 57600.00000 0 -1887398.172 -21199334.559 14077228.126 10 0 60659 58500.00000 0 -1162778.959 -19460083.177 16466171.258 10 0 60659 59400.00000 0 -179985.891 -17538747.820 18535664.458 10 0 60659 60300.00000 0 1065887.293 -15498685.743 20245602.915 10 0 60659 61200.00000 0 2567339.827 -13404860.907 21562854.277 10 0 60659 62100.00000 0 4304536.592 -11321237.427 22461894.693 10 0 60659 63000.00000 0 6245904.543 -9308233.578 22925298.563 10 0 60659 63900.00000 0 8349229.038 -7420341.594 22944073.155 10 0 60659 64800.00000 0 10563205.630 -5704011.315 22517832.094 10 0 60659 65700.00000 0 12829384.034 -4195884.726 21654804.540 10 0 60659 66600.00000 0 15084424.710 -2921453.907 20371679.748 10 0 60659 67500.00000 0 17262575.426 -1894197.329 18693289.602 10 0 60659 68400.00000 0 19298265.885 -1115229.731 16652134.572 10 0 60659 69300.00000 0 21128713.208 -573479.511 14287761.458 10 0 60659 70200.00000 0 22696430.265 -246385.692 11646004.046 10 0 60659 71100.00000 0 23951532.454 -101084.761 8778100.530 10 0 60659 72000.00000 0 24853746.481 -96037.164 5739704.103 10 0 60659 72900.00000 0 25374036.781 -183024.585 2589805.453 10 0 60659 73800.00000 0 25495780.963 -309433.327 -610412.176 10 0 60659 74700.00000 0 25215444.317 -420726.821 -3798762.989 10 0 60659 75600.00000 0 24542724.486 -463002.028 -6913270.268 10 0 60659 76500.00000 0 23500159.601 -385520.695 -9893375.571 10 0 60659 77400.00000 0 22122215.900 -143107.363 -12681121.313 10 0 60659 78300.00000 0 20453892.852 301688.481 -15222283.082 10 0 60659 79200.00000 0 18548904.169 976758.801 -17467429.092 10 0 60659 80100.00000 0 16467511.044 1899010.671 -19372885.689 10 0 60659 81000.00000 0 14274098.503 3073408.731 -20901589.814 10 0 60659 81900.00000 0 12034596.460 4492528.049 -22023811.762 10 0 60659 82800.00000 0 9813853.450 6136637.424 -22717734.182 10 0 60659 83700.00000 0 7673072.774 7974310.770 -22969876.198 10 0 60659 84600.00000 0 5667417.928 9963541.969 -22775354.649 10 0 60659 85500.00000 0 3843886.922 12053317.339 -22137977.515 10 0 60660 0.00000 0 2239543.714 14185580.455 -21070168.045 10 0 60660 900.00000 0 880178.945 16297508.881 -19592720.494 10 0 60660 1800.00000 0 -220543.051 18324005.142 -17734393.799 10 0 60660 2700.00000 0 -1061419.401 20200301.898 -15531349.208 10 0 60660 3600.00000 0 -1653511.218 21864569.673 -13026444.097 10 0 60660 4500.00000 0 -2019424.173 23260419.246 -10268395.303 10 0 60660 5400.00000 0 -2192098.768 24339193.826 -7310828.415 10 0 60660 6300.00000 0 -2213162.727 25061955.036 -4211231.720 10 0 60660 7200.00000 0 -2130916.400 25401079.593 -1029835.498 10 0 60660 8100.00000 0 -1998037.482 25341399.926 2171561.154 10 0 60660 9000.00000 0 -1869103.127 24880841.203 5330792.774 10 0 60660 9900.00000 0 -1798035.080 24030528.453 8386535.429 10 0 60660 10800.00000 0 -1835576.532 22814359.713 11279496.366 10 0 60660 11700.00000 0 -2026907.818 21268063.595 13953562.189 10 0 60660 12600.00000 0 -2409502.030 19437781.108 16356883.349 10 0 60660 13500.00000 0 -3011311.261 17378231.344 18442874.270 10 0 60660 14400.00000 0 -3849360.191 15150537.738 20171110.261 10 0 60660 15300.00000 0 -4928806.476 12819805.469 21508104.538 10 0 60660 16200.00000 0 -6242507.911 10452550.547 22427951.094 10 0 60660 17100.00000 0 -7771115.146 8114086.953 22912821.769 10 0 60660 18000.00000 0 -9483686.964 5865979.645 22953308.559 10 0 60660 18900.00000 0 -11338803.457 3763668.287 22548605.008 10 0 60660 19800.00000 0 -13286131.867 1854359.324 21706523.378 10 0 60660 20700.00000 0 -15268381.044 175272.930 20443347.154 10 0 60660 21600.00000 0 -17223564.296 -1247683.333 18783521.335 10 0 60660 22500.00000 0 -19087477.453 -2400759.904 16759185.832 10 0 60660 23400.00000 0 -20796289.673 -3282695.209 14409560.210 10 0 60660 24300.00000 0 -22289139.528 -3904517.203 11780190.746 10 0 60660 25200.00000 0 -23510628.198 -4288825.352 8922073.536 10 0 60660 26100.00000 0 -24413105.465 -4468583.698 5890669.951 10 0 60660 27000.00000 0 -24958652.418 -4485476.229 2744833.018 10 0 60660 27900.00000 0 -25120677.166 -4387894.314 -454334.667 10 0 60660 28800.00000 0 -24885055.782 -4228641.707 -3644669.229 10 0 60660 29700.00000 0 -24250769.706 -4062454.709 -6764156.599 10 0 60660 30600.00000 0 -23230011.943 -3943443.175 -9752142.374 10 0 60660 31500.00000 0 -21847756.813 -3922561.504 -12550516.229 10 0 60660 32400.00000 0 -20140810.658 -4045217.659 -15104847.212 10 0 60660 33300.00000 0 -18156382.848 -4349122.401 -17365447.265 10 0 60660 34200.00000 0 -15950236.712 -4862470.813 -19288341.763 10 0 60660 35100.00000 0 -13584497.663 -5602534.011 -20836127.904 10 0 60660 36000.00000 0 -11125210.109 -6574721.585 -21978704.153 10 0 60660 36900.00000 0 -8639745.208 -7772155.289 -22693856.546 10 0 60660 37800.00000 0 -6194167.585 -9175772.943 -22967690.609 10 0 60660 38700.00000 0 -3850670.624 -10754959.061 -22794900.691 10 0 60660 39600.00000 0 -1665186.914 -12468676.515 -22178871.678 10 0 60660 40500.00000 0 314727.092 -14267052.465 -21131611.270 10 0 60660 41400.00000 0 2051644.814 -16093352.576 -19673514.244 10 0 60660 42300.00000 0 3519589.479 -17886261.227 -17832963.347 10 0 60660 43200.00000 0 4704866.349 -19582372.385 -15645774.579 10 0 60660 44100.00000 0 5606373.861 -21118786.916 -13154497.647 10 0 60660 45000.00000 0 6235382.147 -22435707.437 -10407585.271 10 0 60660 45900.00000 0 6614789.877 -23478921.845 -7458447.583 10 0 60660 46800.00000 0 6777892.278 -24202071.230 -4364410.238 10 0 60660 47700.00000 0 6766713.793 -24568606.876 -1185596.820 10 0 60660 48600.00000 0 6629977.116 -24553354.174 2016242.327 10 0 60660 49500.00000 0 6420795.645 -24143617.789 5178931.673 10 0 60660 50400.00000 0 6194187.868 -23339781.824 8241078.712 10 0 60660 51300.00000 0 6004519.534 -22155379.948 11143265.035 10 0 60660 52200.00000 0 5902982.308 -20616632.763 13829197.053 10 0 60660 53100.00000 0 5935215.722 -18761471.954 16246794.087 10 0 60660 54000.00000 0 6139173.021 -16638092.135 18349193.040 10 0 60660 54900.00000 0 6543320.963 -14303090.807 20095650.733 10 0 60660 55800.00000 0 7165249.482 -11819273.780 21452327.108 10 0 60660 56700.00000 0 8010749.839 -9253216.995 22392934.901 10 0 60660 57600.00000 0 9073400.306 -6672685.438 22899244.042 10 0 60660 58500.00000 0 10334677.278 -4144015.552 22961431.641 10 0 60660 59400.00000 0 11764587.919 -1729568.754 22578271.312 10 0 60660 60300.00000 0 13322798.836 514639.381 21757158.344 10 0 60660 61200.00000 0 14960214.689 2541037.006 20513970.177 10 0 60660 62100.00000 0 16620941.941 4312234.957 18872764.455 10 0 60660 63000.00000 0 18244556.801 5802335.529 16865319.885 10 0 60660 63900.00000 0 19768583.547 6997757.483 14530527.937 10 0 60660 64800.00000 0 21131080.265 7897543.673 11913646.299 10 0 60660 65700.00000 0 22273224.253 8513139.108 9065427.649 10 0 60660 66600.00000 0 23141788.754 8867649.316 6041139.930 10 0 60660 67500.00000 0 23691406.921 8994610.673 2899496.629 10 0 60660 68400.00000 0 23886527.343 8936324.945 -298482.462 10 0 60660 69300.00000 0 23702978.137 8741828.771 -3490657.768 10 0 60660 70200.00000 0 23129072.843 8464584.415 -6614980.421 10 0 60660 71100.00000 0 22166210.531 8159990.072 -9610702.685 10 0 60660 72000.00000 0 20828943.839 7882815.794 -12419564.124 10 0 60660 72900.00000 0 19144511.055 7684674.369 -14986929.815 10 0 60660 73800.00000 0 17151851.080 7611635.044 -17262857.865 10 0 60660 74700.00000 0 14900141.893 7702081.926 -19203074.961 10 0 60660 75600.00000 0 12446923.233 7984908.472 -20769840.675 10 0 60660 76500.00000 0 9855881.628 8478125.169 -21932683.576 10 0 60660 77400.00000 0 7194390.076 9187939.951 -22668994.823 10 0 60660 78300.00000 0 4530904.752 10108350.867 -22964467.836 10 0 60660 79200.00000 0 1932326.990 11221268.787 -22813375.685 10 0 60660 80100.00000 0 -538559.911 12497165.614 -22218681.020 10 0 60660 81000.00000 0 -2825472.829 13896221.226 -21191976.553 10 0 60660 81900.00000 0 -4880731.375 15369921.406 -19753257.398 10 0 60660 82800.00000 0 -6666994.130 16863039.923 -17930529.725 10 0 60660 83700.00000 0 -8158557.211 18315921.716 -15759263.373 10 0 60660 84600.00000 0 -9342162.250 19666971.383 -13281699.045 10 0 60660 85500.00000 0 -10217281.415 20855242.367 -10546023.621 10 0 60661 0.00000 0 -10795869.066 21823017.834 -7605430.006 10 0 60661 900.00000 0 -11101592.385 22518275.040 -4517078.381 10 0 60661 1800.00000 0 -11168574.225 22896928.103 -1340983.358 10 0 60661 2700.00000 0 -11039703.724 22924756.365 1861156.157 10 0 60661 3600.00000 0 -10764586.497 22578935.757 5027157.383 10 0 60661 4500.00000 0 -10397222.454 21849109.215 8095562.109 10 0 60661 5400.00000 0 -9993510.243 20737951.037 11006829.169 10 0 60661 6300.00000 0 -9608684.348 19261201.426 13704487.669 10 0 60661 7200.00000 0 -9294793.496 17447169.730 16136228.606 10 0 60661 8100.00000 0 -9098326.950 15335727.060 18254914.065 10 0 60661 9000.00000 0 -9058088.767 12976830.105 20019484.929 10 0 60661 9900.00000 0 -9203409.433 10428637.389 21395750.201 10 0 60661 10800.00000 0 -9552770.027 7755295.826 22357043.446 10 0 60661 11700.00000 0 -10112896.681 5024488.830 22884734.452 10 0 60661 12600.00000 0 -10878363.470 2304846.915 22968586.846 10 0 60661 13500.00000 0 -11831720.760 -336672.863 22606955.278 10 0 60661 14400.00000 0 -12944144.172 -2837331.123 21806818.566 10 0 60661 15300.00000 0 -14176577.796 -5140969.672 20583648.080 10 0 60661 16200.00000 0 -15481324.680 -7200097.425 18961113.560 10 0 60661 17100.00000 0 -16804019.013 -8977613.183 16970631.408 10 0 60661 18000.00000 0 -18085898.282 -10448094.533 14650763.400 10 0 60661 18900.00000 0 -19266280.966 -11598600.036 12046476.565 10 0 60661 19800.00000 0 -20285146.358 -12428951.849 9208277.684 10 0 60661 20700.00000 0 -21085708.394 -12951487.566 6191238.468 10 0 60661 21600.00000 0 -21616875.205 -13190292.153 3053929.793 10 0 60661 22500.00000 0 -21835490.444 -13179942.730 -142714.600 10 0 60661 23400.00000 0 -21708261.284 -12963819.526 -3336582.818 10 0 60661 24300.00000 0 -21213290.847 -12592054.740 -6465594.633 10 0 60661 25200.00000 0 -20341149.376 -12119206.530 -9468912.437 10 0 60661 26100.00000 0 -19095437.791 -11601757.061 -12288129.096 10 0 60661 27000.00000 0 -17492818.664 -11095541.142 -14868408.993 10 0 60661 27900.00000 0 -15562512.190 -10653214.907 -17159559.443 10 0 60661 28800.00000 0 -13345277.284 -10321872.330 -19117011.153 10 0 60661 29700.00000 0 -10891919.668 -10140910.977 -20702688.316 10 0 60661 30600.00000 0 -8261388.694 -10140237.794 -21885751.288 10 0 60661 31500.00000 0 -5518541.879 -10338891.185 -22643197.406 10 0 60661 32400.00000 0 -2731670.005 -10744137.961 -22960308.374 10 0 60661 33300.00000 0 30114.536 -11351083.612 -22830935.738 10 0 60661 34200.00000 0 2699517.751 -12142812.594 -22257619.068 10 0 60661 35100.00000 0 5213623.033 -13091052.989 -21251534.748 10 0 60661 36000.00000 0 7516263.214 -14157337.724 -19832276.462 10 0 60661 36900.00000 0 9560107.631 -15294613.607 -18027471.698 10 0 60661 37800.00000 0 11308378.155 -16449230.491 -15872241.752 10 0 60661 38700.00000 0 12736123.687 -17563226.817 -13408515.723 10 0 60661 39600.00000 0 13831001.121 -18576815.194 -10684211.888 10 0 60661 40500.00000 0 14593531.527 -19430963.123 -7752302.493 10 0 60661 41400.00000 0 15036822.346 -20069959.935 -4669780.337 10 0 60661 42300.00000 0 15185768.823 -20443861.448 -1496547.582 10 0 60661 43200.00000 0 15075769.854 -20510709.062 1705751.228 10 0 60661 44100.00000 0 14751013.772 -20238429.503 4874928.854 10 0 60661 45000.00000 0 14262407.653 -19606334.948 7949463.984 10 0 60661 45900.00000 0 13665238.565 -18606160.173 10869695.044 10 0 60661 46800.00000 0 13016666.221 -17242592.894 13578975.879 10 0 60661 47700.00000 0 12373153.326 -15533274.793 16024770.891 10 0 60661 48600.00000 0 11787942.195 -13508272.884 18159668.728 10 0 60661 49500.00000 0 11308683.924 -11209042.896 19942295.361 10 0 60661 50400.00000 0 10975319.708 -8686927.440 21338109.546 10 0 60661 51300.00000 0 10818303.078 -6001250.829 22320066.040 10 0 60661 52200.00000 0 10857237.432 -3217088.901 22869134.534 10 0 60661 53100.00000 0 11099985.792 -402805.539 22974664.943 10 0 60661 54000.00000 0 11542290.036 2372543.108 22634592.473 10 0 60661 54900.00000 0 12167915.719 5041830.241 21855478.766 10 0 60661 55800.00000 0 12949316.735 7542398.411 20652388.247 10 0 60661 56700.00000 0 13848792.527 9818413.739 19048601.712 10 0 60661 57600.00000 0 14820090.015 11822937.739 17075172.083 10 0 60661 58500.00000 0 15810383.790 13519631.588 14770330.130 10 0 60661 59400.00000 0 16762552.119 14884022.665 12178750.771 10 0 60661 60300.00000 0 17617653.681 15904281.220 9350693.279 10 0 60661 61200.00000 0 18317501.147 16581475.186 6341031.353 10 0 60661 62100.00000 0 18807223.248 16929292.885 3208191.311 10 0 60661 63000.00000 0 19037707.047 16973245.652 13018.728 10 0 60661 63900.00000 0 18967816.765 16749384.263 -3182404.417 10 0 60661 64800.00000 0 18566294.648 16302583.637 -6315968.850 10 0 60661 65700.00000 0 17813262.495 15684468.652 -9326749.404 10 0 60661 66600.00000 0 16701259.239 14951069.122 -12156194.506 10 0 60661 67500.00000 0 15235769.481 14160303.649 -14749269.997 10 0 60661 68400.00000 0 13435219.333 13369399.185 -17055534.415 10 0 60661 69300.00000 0 11330438.508 12632355.988 -19030124.337 10 0 60661 70200.00000 0 8963610.045 11997565.539 -20634630.256 10 0 60661 71100.00000 0 6386750.679 11505682.418 -21837845.834 10 0 60661 72000.00000 0 3659784.572 11187840.299 -22616375.911 10 0 60661 72900.00000 0 848290.155 11064287.455 -22955091.587 10 0 60661 73800.00000 0 -1978986.599 11143499.403 -22847423.719 10 0 60661 74700.00000 0 -4752749.343 11421806.050 -22295489.304 10 0 60661 75600.00000 0 -7405790.598 11883548.965 -21310048.514 10 0 60661 76500.00000 0 -9875543.730 12501761.991 -19910293.278 10 0 60661 77400.00000 0 -12106442.065 13239346.368 -18123471.648 10 0 60661 78300.00000 0 -14051987.622 14050690.608 -15984355.210 10 0 60661 79200.00000 0 -15676444.094 14883666.610 -13534559.935 10 0 60661 80100.00000 0 -16956084.408 15681917.557 -10821733.684 10 0 60661 81000.00000 0 -17879941.919 16387340.760 -7898626.289 10 0 60661 81900.00000 0 -18450035.081 16942660.314 -4822060.473 10 0 60661 82800.00000 0 -18681057.579 17293980.609 -1651823.924 10 0 60661 83700.00000 0 -18599548.413 17393212.509 1550495.523 10 0 60661 84600.00000 0 -18242578.244 17200269.434 4722708.571 10 0 60661 85500.00000 0 -17656008.652 16684940.334 7803233.263 99